RYR48LV GMMX-GCTS

Flight info

Callsign RYR48LV
Flight time 1h 46m
Altitude 31000
Route MAGAV3D MAGAV UR975 ADM UN869 RUSIK RUSIK1G
Aircraft B738/M-SDE2E3FGHIRWXY/LB1

Departure

Time 2026-05-05 13:58
Airport Marrakesh Menara Airport (GMMX)

Arrival

Time 2026-05-05 15:44
Airport Tenerife Sur Airport (GCTS)
Time Latitude Longitude Altitude Speed Heading
2026-05-05 13:34 31.60306 -8.02546 1542 ft 0 kts 185°
2026-05-05 13:46 31.60319 -8.02545 1540 ft 4 kts 184°
2026-05-05 13:47 31.60346 -8.02543 1549 ft 4 kts 183°
2026-05-05 13:47 31.60373 -8.02540 1538 ft 4 kts 199°
2026-05-05 13:47 31.60396 -8.02527 1545 ft 4 kts 219°
2026-05-05 13:47 31.60412 -8.02504 1540 ft 4 kts 253°
2026-05-05 13:48 31.60415 -8.02477 1540 ft 1 kts 276°
2026-05-05 13:48 31.60415 -8.02476 1540 ft 1 kts 276°
2026-05-05 13:50 31.60415 -8.02480 1540 ft 3 kts 276°
2026-05-05 13:51 31.60420 -8.02528 1544 ft 8 kts 276°
2026-05-05 13:51 31.60428 -8.02616 1541 ft 13 kts 276°
2026-05-05 13:51 31.60437 -8.02724 1545 ft 13 kts 277°
2026-05-05 13:51 31.60448 -8.02827 1548 ft 13 kts 277°
2026-05-05 13:52 31.60456 -8.02928 1543 ft 12 kts 276°
2026-05-05 13:52 31.60464 -8.03027 1548 ft 12 kts 275°
2026-05-05 13:52 31.60473 -8.03132 1545 ft 14 kts 276°
2026-05-05 13:52 31.60484 -8.03257 1548 ft 17 kts 276°
2026-05-05 13:53 31.60497 -8.03404 1547 ft 19 kts 276°
2026-05-05 13:53 31.60511 -8.03564 1544 ft 21 kts 276°
2026-05-05 13:53 31.60527 -8.03745 1542 ft 24 kts 276°
2026-05-05 13:53 31.60545 -8.03943 1542 ft 26 kts 276°
2026-05-05 13:54 31.60564 -8.04167 1547 ft 28 kts 276°
2026-05-05 13:54 31.60583 -8.04386 1544 ft 26 kts 276°
2026-05-05 13:54 31.60601 -8.04591 1542 ft 24 kts 276°
2026-05-05 13:54 31.60619 -8.04783 1546 ft 23 kts 276°
2026-05-05 13:55 31.60635 -8.04967 1540 ft 22 kts 275°
2026-05-05 13:55 31.60650 -8.05145 1542 ft 22 kts 276°
2026-05-05 13:55 31.60690 -8.05257 1541 ft 12 kts
2026-05-05 13:55 31.60794 -8.05235 1527 ft 20 kts 21°
2026-05-05 13:56 31.60823 -8.05143 1531 ft 11 kts 95°
2026-05-05 13:56 31.60821 -8.05127 1531 ft 0 kts 96°
2026-05-05 13:57 31.60811 -8.05009 1531 ft 44 kts 96°
2026-05-05 13:57 31.60754 -8.04373 1533 ft 111 kts 96°
2026-05-05 13:57 31.60655 -8.03259 1538 ft 166 kts 93°
2026-05-05 13:57 31.60518 -8.01773 1950 ft 185 kts 95°
2026-05-05 13:58 31.60230 -8.00278 2565 ft 202 kts 112°
2026-05-05 13:58 31.59610 -7.98733 3192 ft 215 kts 114°
2026-05-05 13:58 31.58961 -7.97085 3455 ft 236 kts 113°
2026-05-05 13:58 31.58281 -7.95259 3963 ft 241 kts 111°
2026-05-05 13:59 31.56894 -7.91441 4983 ft 267 kts 113°
2026-05-05 13:59 31.55867 -7.89682 5784 ft 266 kts 141°
2026-05-05 14:00 31.52471 -7.88467 7473 ft 256 kts 188°
2026-05-05 14:00 31.51290 -7.88742 7901 ft 260 kts 201°
2026-05-05 14:00 31.49361 -7.90380 8806 ft 258 kts 238°
2026-05-05 14:00 31.48666 -7.92237 9956 ft 245 kts 256°
2026-05-05 14:01 31.48431 -7.94223 10563 ft 255 kts 270°
2026-05-05 14:01 31.48762 -7.96298 11197 ft 259 kts 280°
2026-05-05 14:01 31.48723 -7.98444 11451 ft 278 kts 250°
2026-05-05 14:01 31.47661 -8.00437 11661 ft 302 kts 233°
2026-05-05 14:02 31.46206 -8.02340 11822 ft 325 kts 229°
2026-05-05 14:02 31.44581 -8.04295 12088 ft 342 kts 228°
2026-05-05 14:02 31.42883 -8.06295 12651 ft 348 kts 228°
2026-05-05 14:02 31.41182 -8.08298 13454 ft 347 kts 229°
2026-05-05 14:03 31.40059 -8.09628 13940 ft 347 kts 229°
2026-05-05 14:03 31.37782 -8.12343 14778 ft 350 kts 230°
2026-05-05 14:03 31.36097 -8.14367 15423 ft 352 kts 230°
2026-05-05 14:03 31.34942 -8.15758 15840 ft 353 kts 230°
2026-05-05 14:04 31.32665 -8.18507 16613 ft 357 kts 230°
2026-05-05 14:04 31.30930 -8.20606 17203 ft 359 kts 230°
2026-05-05 14:04 31.29190 -8.22710 17804 ft 361 kts 230°
2026-05-05 14:04 31.28006 -8.24142 18200 ft 363 kts 230°
2026-05-05 14:05 31.26269 -8.26242 18712 ft 365 kts 230°
2026-05-05 14:05 31.24507 -8.28371 19282 ft 364 kts 230°
2026-05-05 14:05 31.22751 -8.30491 19904 ft 362 kts 230°
2026-05-05 14:05 31.20998 -8.32605 20557 ft 361 kts 230°
2026-05-05 14:06 31.19250 -8.34716 21092 ft 363 kts 230°
2026-05-05 14:06 31.17497 -8.36831 21675 ft 361 kts 230°
2026-05-05 14:06 31.15751 -8.38933 22275 ft 360 kts 230°
2026-05-05 14:06 31.14002 -8.41042 22780 ft 361 kts 230°
2026-05-05 14:07 31.12254 -8.43148 23367 ft 360 kts 230°
2026-05-05 14:07 31.10506 -8.45252 23820 ft 361 kts 230°
2026-05-05 14:07 31.08736 -8.47356 24109 ft 365 kts 230°
2026-05-05 14:07 31.06959 -8.49494 24407 ft 369 kts 230°
2026-05-05 14:08 31.05175 -8.51652 24651 ft 371 kts 230°
2026-05-05 14:08 31.03394 -8.53799 24796 ft 372 kts 230°
2026-05-05 14:08 31.01593 -8.55961 25263 ft 369 kts 230°
2026-05-05 14:08 30.99814 -8.58093 25838 ft 366 kts 231°
2026-05-05 14:09 30.98034 -8.60225 26217 ft 367 kts 230°
2026-05-05 14:09 30.96253 -8.62358 26646 ft 367 kts 230°
2026-05-05 14:09 30.94475 -8.64492 26921 ft 368 kts 231°
2026-05-05 14:09 30.92690 -8.66631 27308 ft 368 kts 231°
2026-05-05 14:10 30.90904 -8.68757 27819 ft 366 kts 230°
2026-05-05 14:10 30.89111 -8.70863 28250 ft 366 kts 231°
2026-05-05 14:10 30.87349 -8.72962 29085 ft 358 kts 232°
2026-05-05 14:10 30.85629 -8.75018 29788 ft 354 kts 231°
2026-05-05 14:11 30.83922 -8.77067 30310 ft 350 kts 231°
2026-05-05 14:11 30.82229 -8.79095 30674 ft 350 kts 231°
2026-05-05 14:11 30.80522 -8.81132 30864 ft 353 kts 230°
2026-05-05 14:11 30.78814 -8.83176 30994 ft 353 kts 231°
2026-05-05 14:12 30.75379 -8.87282 30965 ft 353 kts 231°
2026-05-05 14:12 30.71954 -8.91357 30959 ft 351 kts 231°
2026-05-05 14:13 30.68557 -8.95390 30989 ft 350 kts 231°
2026-05-05 14:13 30.65159 -8.99413 30970 ft 352 kts 231°
2026-05-05 14:14 30.61771 -9.03427 30940 ft 353 kts 231°
2026-05-05 14:14 30.58333 -9.07498 30962 ft 353 kts 231°
2026-05-05 14:15 30.54885 -9.11574 30969 ft 354 kts 231°
2026-05-05 14:15 30.51431 -9.15655 30969 ft 354 kts 231°
2026-05-05 14:16 30.47974 -9.19734 30959 ft 354 kts 231°
2026-05-05 14:16 30.44521 -9.23805 30956 ft 354 kts 231°
2026-05-05 14:17 30.41070 -9.27869 30968 ft 353 kts 231°
2026-05-05 14:17 30.37652 -9.31893 30959 ft 352 kts 231°
2026-05-05 14:18 30.34214 -9.35937 30957 ft 351 kts 232°
2026-05-05 14:18 30.31379 -9.40448 30933 ft 345 kts 243°
2026-05-05 14:19 30.29332 -9.45452 30932 ft 344 kts 247°
2026-05-05 14:19 30.27359 -9.50492 30947 ft 344 kts 247°
2026-05-05 14:20 30.25379 -9.55534 30947 ft 344 kts 247°
2026-05-05 14:20 30.23387 -9.60579 30977 ft 345 kts 246°
2026-05-05 14:21 30.21403 -9.65590 30974 ft 345 kts 246°
2026-05-05 14:21 30.19402 -9.70631 30990 ft 345 kts 246°
2026-05-05 14:22 30.17396 -9.75675 30985 ft 344 kts 246°
2026-05-05 14:22 30.15395 -9.80700 30985 ft 344 kts 246°
2026-05-05 14:23 30.13394 -9.85722 31004 ft 344 kts 246°
2026-05-05 14:23 30.11402 -9.90709 30996 ft 344 kts 246°
2026-05-05 14:24 30.09398 -9.95724 30997 ft 343 kts 246°
2026-05-05 14:24 30.07423 -10.00656 31003 ft 343 kts 246°
2026-05-05 14:25 30.05418 -10.05658 31000 ft 343 kts 246°
2026-05-05 14:25 30.03416 -10.10646 31000 ft 342 kts 246°
2026-05-05 14:26 30.01410 -10.15637 31005 ft 342 kts 246°
2026-05-05 14:26 29.99405 -10.20617 30998 ft 342 kts 246°
2026-05-05 14:27 29.97396 -10.25603 31012 ft 343 kts 246°
2026-05-05 14:27 29.95379 -10.30602 31006 ft 344 kts 246°
2026-05-05 14:28 29.93366 -10.35583 31004 ft 345 kts 246°
2026-05-05 14:28 29.91333 -10.40608 31005 ft 346 kts 246°
2026-05-05 14:29 29.89294 -10.45640 31008 ft 347 kts 246°
2026-05-05 14:29 29.87250 -10.50678 31007 ft 347 kts 246°
2026-05-05 14:30 29.85206 -10.55709 31007 ft 347 kts 246°
2026-05-05 14:30 29.83161 -10.60734 31015 ft 346 kts 246°
2026-05-05 14:31 29.81118 -10.65749 31007 ft 345 kts 246°
2026-05-05 14:31 29.79078 -10.70751 31008 ft 344 kts 246°
2026-05-05 14:32 29.77044 -10.75732 31008 ft 343 kts 246°
2026-05-05 14:32 29.75013 -10.80697 31007 ft 343 kts 246°
2026-05-05 14:33 29.72980 -10.85663 31011 ft 342 kts 246°
2026-05-05 14:33 29.70960 -10.90588 31014 ft 342 kts 246°
2026-05-05 14:34 29.68924 -10.95547 31025 ft 343 kts 246°
2026-05-05 14:34 29.66913 -11.00437 31013 ft 343 kts 246°
2026-05-05 14:35 29.64873 -11.05394 30981 ft 343 kts 245°
2026-05-05 14:35 29.62840 -11.10325 31013 ft 343 kts 245°
2026-05-05 14:36 29.60790 -11.15294 31018 ft 344 kts 245°
2026-05-05 14:36 29.58728 -11.20282 31019 ft 346 kts 245°
2026-05-05 14:37 29.56658 -11.25286 31020 ft 347 kts 245°
2026-05-05 14:37 29.54578 -11.30304 31013 ft 348 kts 245°
2026-05-05 14:38 29.52494 -11.35327 31015 ft 349 kts 245°
2026-05-05 14:38 29.50418 -11.40323 31021 ft 348 kts 245°
2026-05-05 14:39 29.48333 -11.45334 31021 ft 347 kts 245°
2026-05-05 14:39 29.46254 -11.50326 31011 ft 346 kts 245°
2026-05-05 14:40 29.44177 -11.55305 31013 ft 345 kts 245°
2026-05-05 14:40 29.42106 -11.60264 31013 ft 344 kts 245°
2026-05-05 14:41 29.40037 -11.65213 31014 ft 344 kts 245°
2026-05-05 14:41 29.37967 -11.70156 31011 ft 344 kts 245°
2026-05-05 14:42 29.35895 -11.75097 31024 ft 344 kts 245°
2026-05-05 14:42 29.33821 -11.80037 31025 ft 344 kts 245°
2026-05-05 14:43 29.31752 -11.84961 31016 ft 345 kts 245°
2026-05-05 14:43 29.29667 -11.89915 31027 ft 345 kts 245°
2026-05-05 14:44 29.27580 -11.94868 31009 ft 345 kts 245°
2026-05-05 14:44 29.25490 -11.99820 31020 ft 346 kts 245°
2026-05-05 14:45 29.23429 -12.04699 31033 ft 346 kts 245°
2026-05-05 14:45 29.21328 -12.09666 31026 ft 347 kts 245°
2026-05-05 14:46 29.19234 -12.14609 31025 ft 347 kts 245°
2026-05-05 14:46 29.17124 -12.19584 31022 ft 347 kts 245°
2026-05-05 14:47 29.15013 -12.24554 31023 ft 347 kts 245°
2026-05-05 14:47 29.12901 -12.29522 31026 ft 347 kts 245°
2026-05-05 14:48 29.10790 -12.34480 31026 ft 346 kts 245°
2026-05-05 14:48 29.08691 -12.39404 31024 ft 346 kts 245°
2026-05-05 14:49 29.06582 -12.44346 31037 ft 346 kts 245°
2026-05-05 14:49 29.04472 -12.49283 31024 ft 345 kts 245°
2026-05-05 14:50 29.02363 -12.54214 31027 ft 345 kts 245°
2026-05-05 14:50 29.00252 -12.59140 31029 ft 345 kts 245°
2026-05-05 14:51 28.98144 -12.64056 31024 ft 345 kts 244°
2026-05-05 14:51 28.96031 -12.68976 31023 ft 345 kts 244°
2026-05-05 14:52 28.93929 -12.73865 31016 ft 345 kts 244°
2026-05-05 14:52 28.92158 -12.77982 31006 ft 345 kts 244°
2026-05-05 14:53 28.90025 -12.82887 31022 ft 345 kts 243°
2026-05-05 14:53 28.87729 -12.87661 31031 ft 345 kts 242°
2026-05-05 14:54 28.85374 -12.92446 31027 ft 346 kts 242°
2026-05-05 14:54 28.83024 -12.97245 31028 ft 347 kts 242°
2026-05-05 14:55 28.80707 -13.01998 31028 ft 347 kts 242°
2026-05-05 14:55 28.78362 -13.06813 31030 ft 347 kts 242°
2026-05-05 14:56 28.76016 -13.11628 31029 ft 347 kts 242°
2026-05-05 14:56 28.73689 -13.16402 31035 ft 347 kts 242°
2026-05-05 14:57 28.71344 -13.21205 31032 ft 347 kts 242°
2026-05-05 14:57 28.69003 -13.25996 31031 ft 346 kts 242°
2026-05-05 14:58 28.66663 -13.30779 31032 ft 345 kts 242°
2026-05-05 14:58 28.64321 -13.35561 31031 ft 345 kts 242°
2026-05-05 14:59 28.61981 -13.40333 31031 ft 345 kts 242°
2026-05-05 14:59 28.59640 -13.45101 31036 ft 345 kts 242°
2026-05-05 15:00 28.57692 -13.49063 31030 ft 345 kts 242°
2026-05-05 15:00 28.54964 -13.54608 31029 ft 345 kts 242°
2026-05-05 15:01 28.52611 -13.59384 31039 ft 346 kts 242°
2026-05-05 15:01 28.50257 -13.64159 31043 ft 346 kts 242°
2026-05-05 15:02 28.47911 -13.68910 31046 ft 347 kts 242°
2026-05-05 15:02 28.45545 -13.73696 31047 ft 348 kts 242°
2026-05-05 15:03 28.43173 -13.78489 31049 ft 348 kts 242°
2026-05-05 15:03 28.40801 -13.83275 31049 ft 348 kts 241°
2026-05-05 15:04 28.38424 -13.88066 31048 ft 348 kts 241°
2026-05-05 15:04 28.36049 -13.92849 31048 ft 347 kts 241°
2026-05-05 15:05 28.32489 -14.00009 31041 ft 347 kts 241°
2026-05-05 15:06 28.30154 -14.04696 31037 ft 346 kts 241°
2026-05-05 15:06 28.27785 -14.09447 31027 ft 346 kts 241°
2026-05-05 15:07 28.25415 -14.14194 31026 ft 346 kts 241°
2026-05-05 15:07 28.23044 -14.18939 31020 ft 346 kts 241°
2026-05-05 15:08 28.20681 -14.23663 31028 ft 347 kts 241°
2026-05-05 15:08 28.18297 -14.28422 31018 ft 347 kts 241°
2026-05-05 15:09 28.15912 -14.33178 31032 ft 347 kts 241°
2026-05-05 15:09 28.13520 -14.37944 31033 ft 348 kts 241°
2026-05-05 15:10 28.11119 -14.42721 31030 ft 349 kts 241°
2026-05-05 15:10 28.08722 -14.47485 31045 ft 348 kts 241°
2026-05-05 15:11 28.06330 -14.52236 31029 ft 349 kts 241°
2026-05-05 15:11 28.03923 -14.57012 31033 ft 349 kts 241°
2026-05-05 15:12 28.01516 -14.61779 31033 ft 349 kts 240°
2026-05-05 15:12 27.99492 -14.66732 31031 ft 349 kts 253°
2026-05-05 15:13 27.98362 -14.72078 31037 ft 349 kts 254°
2026-05-05 15:13 27.97240 -14.77417 31029 ft 349 kts 254°
2026-05-05 15:14 27.96100 -14.82748 31030 ft 348 kts 253°
2026-05-05 15:14 27.94958 -14.88033 31030 ft 348 kts 253°
2026-05-05 15:15 27.93803 -14.93349 31033 ft 348 kts 253°
2026-05-05 15:15 27.92646 -14.98663 31031 ft 348 kts 253°
2026-05-05 15:16 27.91505 -15.03889 31029 ft 348 kts 253°
2026-05-05 15:16 27.90341 -15.09217 31028 ft 349 kts 253°
2026-05-05 15:17 27.89189 -15.14480 31008 ft 334 kts 253°
2026-05-05 15:17 27.88652 -15.16940 31004 ft 319 kts 253°
2026-05-05 15:17 27.88125 -15.19345 31012 ft 315 kts 253°
2026-05-05 15:17 27.87595 -15.21748 30781 ft 313 kts 253°
2026-05-05 15:18 27.87073 -15.24119 30487 ft 309 kts 253°
2026-05-05 15:18 27.86557 -15.26460 30202 ft 305 kts 253°
2026-05-05 15:18 27.86044 -15.28788 29818 ft 303 kts 253°
2026-05-05 15:18 27.85540 -15.31073 29487 ft 299 kts 253°
2026-05-05 15:19 27.85039 -15.33343 29110 ft 296 kts 253°
2026-05-05 15:19 27.84542 -15.35593 28744 ft 293 kts 253°
2026-05-05 15:19 27.84050 -15.37818 28411 ft 290 kts 253°
2026-05-05 15:19 27.83563 -15.40019 28060 ft 288 kts 253°
2026-05-05 15:20 27.83087 -15.42200 27724 ft 285 kts 255°
2026-05-05 15:20 27.82925 -15.44444 27336 ft 290 kts 266°
2026-05-05 15:20 27.83075 -15.46722 26965 ft 290 kts 269°
2026-05-05 15:20 27.83283 -15.48985 26623 ft 289 kts 269°
2026-05-05 15:21 27.83497 -15.51211 26288 ft 287 kts 269°
2026-05-05 15:21 27.83710 -15.53442 25964 ft 285 kts 269°
2026-05-05 15:21 27.83920 -15.55687 25651 ft 283 kts 269°
2026-05-05 15:21 27.84118 -15.57860 25343 ft 281 kts 268°
2026-05-05 15:22 27.84312 -15.60061 25031 ft 280 kts 269°
2026-05-05 15:22 27.84506 -15.62248 24682 ft 277 kts 269°
2026-05-05 15:22 27.84697 -15.64403 24417 ft 274 kts 268°
2026-05-05 15:22 27.84884 -15.66545 24123 ft 273 kts 268°
2026-05-05 15:23 27.85069 -15.68656 23861 ft 264 kts 268°
2026-05-05 15:23 27.85248 -15.70728 23486 ft 266 kts 268°
2026-05-05 15:23 27.85425 -15.72799 23174 ft 265 kts 268°
2026-05-05 15:23 27.85602 -15.74893 22873 ft 272 kts 267°
2026-05-05 15:24 27.85788 -15.77081 22542 ft 285 kts 269°
2026-05-05 15:24 27.85976 -15.79315 22210 ft 284 kts 269°
2026-05-05 15:24 27.86164 -15.81505 21876 ft 283 kts 269°
2026-05-05 15:24 27.86353 -15.83706 21573 ft 280 kts 269°
2026-05-05 15:25 27.86540 -15.85886 21262 ft 278 kts 269°
2026-05-05 15:25 27.86724 -15.88050 20951 ft 275 kts 269°
2026-05-05 15:25 27.86907 -15.90195 20649 ft 273 kts 269°
2026-05-05 15:25 27.87087 -15.92328 20344 ft 271 kts 269°
2026-05-05 15:26 27.87266 -15.94449 20045 ft 270 kts 269°
2026-05-05 15:26 27.87443 -15.96555 19749 ft 268 kts 269°
2026-05-05 15:26 27.87619 -15.98645 19455 ft 267 kts 269°
2026-05-05 15:26 27.87788 -16.00663 19184 ft 266 kts 269°
2026-05-05 15:27 27.87962 -16.02741 18882 ft 265 kts 269°
2026-05-05 15:27 27.88134 -16.04810 18590 ft 264 kts 269°
2026-05-05 15:27 27.88306 -16.06876 18296 ft 263 kts 269°
2026-05-05 15:27 27.88477 -16.08931 17963 ft 263 kts 269°
2026-05-05 15:28 27.88646 -16.10961 17661 ft 261 kts 269°
2026-05-05 15:28 27.88815 -16.12998 17364 ft 260 kts 269°
2026-05-05 15:28 27.88982 -16.15021 17076 ft 258 kts 269°
2026-05-05 15:28 27.89149 -16.17031 16794 ft 256 kts 269°
2026-05-05 15:29 27.89314 -16.19023 16514 ft 254 kts 269°
2026-05-05 15:29 27.89433 -16.21014 16083 ft 256 kts 264°
2026-05-05 15:29 27.89351 -16.23029 15672 ft 257 kts 262°
2026-05-05 15:29 27.89218 -16.25076 15185 ft 264 kts 262°
2026-05-05 15:30 27.89081 -16.27145 14853 ft 264 kts 262°
2026-05-05 15:30 27.88951 -16.29199 14540 ft 259 kts 262°
2026-05-05 15:30 27.88827 -16.31231 14085 ft 260 kts 263°
2026-05-05 15:30 27.88706 -16.33270 13608 ft 260 kts 263°
2026-05-05 15:31 27.88588 -16.35303 13188 ft 258 kts 263°
2026-05-05 15:31 27.88475 -16.37303 12870 ft 252 kts 263°
2026-05-05 15:31 27.88366 -16.39255 12614 ft 245 kts 263°
2026-05-05 15:31 27.88261 -16.41157 12351 ft 241 kts 263°
2026-05-05 15:32 27.88155 -16.43047 12084 ft 241 kts 263°
2026-05-05 15:32 27.88048 -16.44949 11835 ft 246 kts 264°
2026-05-05 15:32 27.87936 -16.46929 11589 ft 259 kts 264°
2026-05-05 15:32 27.87820 -16.48994 11307 ft 264 kts 264°
2026-05-05 15:33 27.87706 -16.51050 11013 ft 259 kts 264°
2026-05-05 15:33 27.87596 -16.53058 10743 ft 253 kts 264°
2026-05-05 15:33 27.87487 -16.55019 10428 ft 249 kts 264°
2026-05-05 15:33 27.87375 -16.57011 9799 ft 258 kts 264°
2026-05-05 15:34 27.87261 -16.59028 9215 ft 262 kts 264°
2026-05-05 15:34 27.87145 -16.61083 8757 ft 261 kts 265°
2026-05-05 15:34 27.87031 -16.63126 8323 ft 261 kts 265°
2026-05-05 15:34 27.86915 -16.65174 7927 ft 260 kts 265°
2026-05-05 15:35 27.86799 -16.67219 7554 ft 260 kts 265°
2026-05-05 15:35 27.86685 -16.69247 7273 ft 259 kts 265°
2026-05-05 15:35 27.86569 -16.71276 6899 ft 264 kts 265°
2026-05-05 15:35 27.86452 -16.73336 6697 ft 260 kts 265°
2026-05-05 15:36 27.86336 -16.75365 6446 ft 259 kts 265°
2026-05-05 15:36 27.86218 -16.77407 6112 ft 261 kts 266°
2026-05-05 15:36 27.86101 -16.79448 5907 ft 258 kts 266°
2026-05-05 15:36 27.86212 -16.81459 5517 ft 261 kts 289°
2026-05-05 15:37 27.87186 -16.83179 5229 ft 261 kts 316°
2026-05-05 15:37 27.88698 -16.84282 5031 ft 258 kts 335°
2026-05-05 15:37 27.90339 -16.85061 4825 ft 255 kts 338°
2026-05-05 15:37 27.92046 -16.85403 4695 ft 246 kts
2026-05-05 15:38 27.93600 -16.84788 4602 ft 233 kts 32°
2026-05-05 15:38 27.94748 -16.83587 4518 ft 219 kts 53°
2026-05-05 15:38 27.95248 -16.82619 4457 ft 210 kts 62°
2026-05-05 15:38 27.95847 -16.81171 4350 ft 197 kts 64°
2026-05-05 15:39 27.96409 -16.79771 3956 ft 201 kts 64°
2026-05-05 15:39 27.97007 -16.78344 3754 ft 194 kts 62°
2026-05-05 15:39 27.97579 -16.76977 3524 ft 191 kts 65°
2026-05-05 15:39 27.98081 -16.75614 3307 ft 184 kts 67°
2026-05-05 15:40 27.98540 -16.74303 3080 ft 177 kts 67°
2026-05-05 15:40 27.98983 -16.73029 2796 ft 175 kts 67°
2026-05-05 15:40 27.99421 -16.71768 2678 ft 170 kts 66°
2026-05-05 15:40 27.99861 -16.70495 2480 ft 178 kts 67°
2026-05-05 15:41 28.00305 -16.69191 2200 ft 175 kts 64°
2026-05-05 15:41 28.00736 -16.67939 1949 ft 165 kts 65°
2026-05-05 15:41 28.01150 -16.66759 1689 ft 157 kts 67°
2026-05-05 15:41 28.01545 -16.65619 1502 ft 156 kts 64°
2026-05-05 15:42 28.01954 -16.64437 1278 ft 165 kts 65°
2026-05-05 15:42 28.02360 -16.63261 1081 ft 161 kts 66°
2026-05-05 15:42 28.02764 -16.62104 814 ft 155 kts 69°
2026-05-05 15:42 28.03160 -16.60956 603 ft 157 kts 74°
2026-05-05 15:43 28.03541 -16.59800 384 ft 160 kts 76°
2026-05-05 15:43 28.03969 -16.58635 218 ft 155 kts 72°
2026-05-05 15:43 28.04325 -16.57605 198 ft 115 kts 69°
2026-05-05 15:43 28.04551 -16.57009 198 ft 52 kts 53°
2026-05-05 15:44 28.04686 -16.56836 211 ft 19 kts 47°
2026-05-05 15:44 28.04757 -16.56799 218 ft 7 kts 325°
2026-05-05 15:44 28.04776 -16.56846 218 ft 7 kts 268°
2026-05-05 15:44 28.04763 -16.56895 222 ft 6 kts 247°
2026-05-05 15:45 28.04746 -16.56941 219 ft 6 kts 249°
2026-05-05 15:45 28.04731 -16.56986 221 ft 6 kts 249°
2026-05-05 15:45 28.04729 -16.56992 220 ft 0 kts 249°
2026-05-05 15:49 28.04726 -16.57001 220 ft 6 kts 249°
2026-05-05 15:49 28.04699 -16.57082 222 ft 13 kts 249°
2026-05-05 15:50 28.04659 -16.57172 222 ft 14 kts 246°
2026-05-05 15:50 28.04618 -16.57289 223 ft 18 kts 248°
2026-05-05 15:50 28.04571 -16.57423 222 ft 18 kts 248°
2026-05-05 15:50 28.04527 -16.57548 222 ft 12 kts 249°
2026-05-05 15:51 28.04517 -16.57583 223 ft 3 kts 266°
2026-05-05 15:51 28.04532 -16.57602 222 ft 3 kts 334°
2026-05-05 15:51 28.04553 -16.57611 222 ft 3 kts 336°
2026-05-05 15:51 28.04568 -16.57618 222 ft 1 kts 339°
2026-05-05 15:52 28.04570 -16.57619 222 ft 0 kts 339°